Home > Time Zones > World Clock > Weather > Latvia > Riga > Past weeks

Flag for Latvia Weather past 2 weeks in Riga, Latvia

Now
43 °F

Clear.


Feels Like: 43 °F
Forecast: 45 / 67 °F
Wind: No wind

Location: Riga Airport

Current Time: Sep 3, 2014 at 5:29:51 AM

Latest Report: Sep 3, 2014 at 4:50 AM


Visibility: 10 mi

Pressure: 30.36 "Hg

Humidity: 100%

Dew point: 43 °F

Location of RigaLocation

Historic Weather in Riga — Graph

°F

Riga temperature yesterday

Maximum temperature yesterday: 61 °F (at 12:20 PM)
Minimum temperature yesterday: 43 °F (at 5:20 AM)
Average temperature yesterday: 52 °F

Past Weeks' High & Low Weather Summary

 TemperatureHumidityPressure
High66 °F (Aug 19, 2:20 PM)100% (Aug 19, 4:50 AM)30.36 "Hg (Aug 19, 4:50 AM)
Low43 °F (Sep 2, 5:20 AM)56% (Aug 20, 4:20 PM)29.45 "Hg (Aug 27, 9:20 AM)
Average56 °F85%29.85 "Hg
* Reported Aug 19 4:20 AM — Sep 3 4:20 AM, Riga, Weather by CustomWeather, © 2014

Note: Actual official high and low records may vary slightly from our data, if they occured in-between our weather recording intervals... More about our weather records

Advertising

Riga weather history for previous 24 hours

 ConditionsComfort  
Time TempWeatherWind HumidityBarometerVisibility
4:20 AM
Sep 3
43 °FClear.No wind100%30.36 "Hg4 mi
3:50 AM43 °FFog.No wind100%30.36 "HgN/A
3:20 AM43 °FFog.No wind100%30.36 "HgN/A
2:50 AM43 °FQuite cool.No wind100%30.36 "HgN/A
2:20 AM45 °FFog.No wind100%30.33 "HgN/A
1:50 AM45 °FFog.No wind100%30.36 "Hg5 mi
1:20 AM45 °FFog.No wind100%30.33 "Hg4 mi
12:50 AM46 °FFog.No wind100%30.33 "HgN/A
12:20 AM46 °FFog.No wind100%30.33 "HgN/A
11:50 PM
Sep 2
46 °FFog.No wind100%30.33 "HgN/A
11:20 PM48 °FClear.No wind100%30.33 "Hg10 mi
10:50 PM48 °FClear.No wind100%30.30 "Hg10 mi
10:20 PM48 °FFog.No wind100%30.30 "HgN/A
9:50 PM50 °FFog.No wind100%30.30 "HgN/A
9:20 PM50 °FClear.No wind100%30.30 "Hg10 mi
8:50 PM52 °FSunny.No wind94%30.30 "Hg10 mi
8:20 PM55 °FPassing clouds.3 mph88%30.27 "HgN/A
7:50 PM57 °FSunny.5 mph82%30.27 "Hg10 mi
7:20 PM59 °FSunny.6 mph77%30.27 "Hg10 mi
6:50 PM59 °FSunny.9 mph72%30.27 "Hg10 mi
6:20 PM59 °FPassing clouds.9 mph72%30.27 "HgN/A
5:50 PM61 °FPassing clouds.10 mph72%30.27 "HgN/A
5:20 PM61 °FPassing clouds.9 mph72%30.27 "HgN/A
4:50 PM61 °FScattered clouds.9 mph72%30.27 "HgN/A
4:20 PM61 °FScattered clouds.8 mph72%30.27 "HgN/A
3:50 PM61 °FScattered clouds.9 mph72%30.27 "HgN/A
3:20 PM59 °FScattered clouds.8 mph72%30.27 "HgN/A
2:50 PM61 °FScattered clouds.10 mph72%30.27 "HgN/A
2:20 PM61 °FScattered clouds.8 mph72%30.27 "HgN/A
1:50 PM61 °FScattered clouds.7 mph72%30.27 "HgN/A
1:20 PM59 °FScattered clouds.5 mph72%30.27 "HgN/A
12:50 PM59 °FScattered clouds.3 mph72%30.27 "HgN/A
12:20 PM61 °FBroken clouds.3 mph72%30.27 "HgN/A
11:50 AM55 °FBroken clouds.5 mph82%30.27 "HgN/A
11:20 AM57 °FBroken clouds.5 mph82%30.24 "HgN/A
10:50 AM54 °FBroken clouds.6 mph88%30.24 "HgN/A
10:20 AM52 °FMore clouds than sun.6 mph94%30.24 "HgN/A
9:50 AM50 °FMostly cloudy.8 mph100%30.24 "HgN/A
9:20 AM50 °FFog.6 mph100%30.24 "Hg3 mi
8:50 AM48 °FCool.8 mph100%30.24 "Hg1 mi
8:20 AM48 °FCool.7 mph100%30.24 "Hg0 mi
7:50 AM48 °FFog.No wind100%30.21 "Hg0 mi
7:20 AM43 °FQuite cool.No wind100%30.21 "Hg6 mi
6:50 AM43 °FPassing clouds.No wind100%30.21 "HgN/A
6:20 AM43 °FFog.No wind100%30.21 "Hg6 mi
5:50 AM43 °FFog.1 mph100%30.21 "HgN/A
5:20 AM43 °FLight fog.No wind100%30.18 "HgN/A
Weather by CustomWeather, © 2014

See weather overviewHow to use our weather pages